Juanda, Indonesia

3:06 AM WIB on July 24, 2017 (GMT +0700)
Juanda

Weather History for WARR - December, 2012

Change the Weather History Date:

Friday, December 28, 2012

  Actual Average Record
Temperature  
Mean Temperature 80 °F -  
Max Temperature 84 °F - - ()
Min Temperature 75 °F - - ()
Cooling Degree Days 14    
Growing Degree Days 30 (Base 50)    
Moisture  
Dew Point 74 °F    
Average Humidity 82    
Maximum Humidity 94    
Minimum Humidity 70    
Precipitation  
Precipitation 0.00 in - - ()
Sea Level Pressure  
Sea Level Pressure 29.68 in    
Wind  
Wind Speed 4 mph ()    
Max Wind Speed 17 mph    
Max Gust Speed -    
Visibility 5.0 miles    
Events Rain , Thunderstorm    
T = Trace of Precipitation, MM = Missing Value Source: Averaged Metar Reports

Daily Weather History Graph

Daily Weather History Graph

Search for Another Location

Airport or City:

Trip Planner

Search our weather history database for the weather conditions in past years. The results will help you decide how hot, cold, wet, or windy it might be!

Date:

Astronomy

Dec. 28, 2012 Rise Set
Actual Time 5:13 AM WIB 5:47 PM WIB
Civil Twilight 4:51 AM WIB 6:09 PM WIB
Nautical Twilight 4:24 AM WIB 6:36 PM WIB
Astronomical Twilight 3:57 AM WIB 7:03 PM WIB
Moon 5:41 PM WIB (12/28) 4:53 AM WIB (12/28)
Length of Visible Light 13h 18m
Length of Day
12h 33m
Full, 100% of the Moon is Illuminated
Dec 28
Full
Dec 28
Full
Jan 5
Last Quarter
Jan 12
New
Jan 19
First Quarter

Hourly Weather History & Observations

Time (WIB) Temp. Heat Index Dew Point Humidity Pressure Visibility Wind Dir Wind Speed Gust Speed Precip Events Conditions
12:00 AM 77.0 °F - 73.4 °F 89% 29.68 in 5.0 mi Calm Calm - N/A   Partly Cloudy
1:00 AM 77.0 °F - 73.4 °F 89% 29.68 in 4.3 mi West 3.5 mph - N/A   Partly Cloudy
1:30 AM 77.0 °F - 73.4 °F 89% 29.68 in 4.3 mi West 3.5 mph - N/A   Partly Cloudy
2:00 AM 77.0 °F - 73.4 °F 89% 29.68 in 5.0 mi Calm Calm - N/A   Partly Cloudy
5:30 AM 75.2 °F - 73.4 °F 94% 29.68 in 1.9 mi Variable 2.3 mph - N/A   Haze
6:00 AM 77.0 °F - 75.2 °F 94% 29.68 in 1.2 mi South 4.6 mph - N/A   Haze
6:30 AM 78.8 °F - 77.0 °F 94% 29.68 in 1.2 mi SSW 5.8 mph - N/A   Haze
7:00 AM 78.8 °F - 77.0 °F 94% 29.71 in 2.5 mi SSW 3.5 mph - N/A   Haze
7:30 AM 80.6 °F 87.1 °F 77.0 °F 89% 29.71 in 3.1 mi SW 5.8 mph - N/A   Haze
8:00 AM 82.4 °F 90.9 °F 77.0 °F 84% 29.71 in 3.1 mi South 5.8 mph - N/A   Haze
8:30 AM 84.2 °F 92.3 °F 75.2 °F 74% 29.71 in 3.1 mi SSE 4.6 mph - N/A   Haze
9:00 AM 84.2 °F 90.9 °F 73.4 °F 70% 29.71 in 6.2 mi SE 3.5 mph - N/A   Partly Cloudy
10:00 AM 80.6 °F 83.9 °F 69.8 °F 70% 29.74 in 6.2 mi NE 17.3 mph - N/A Rain , Thunderstorm Thunderstorms and Rain
11:30 AM 84.2 °F 92.3 °F 75.2 °F 74% 29.68 in 5.6 mi NE 8.1 mph - N/A Rain Rain
12:00 PM 78.8 °F - 75.2 °F 89% 29.68 in 5.6 mi NNW 9.2 mph - N/A Rain , Thunderstorm Thunderstorms and Rain
1:00 PM 80.6 °F 86.2 °F 75.2 °F 84% 29.68 in 5.6 mi North 6.9 mph - N/A   Partly Cloudy
1:30 PM 80.6 °F 85.4 °F 73.4 °F 79% 29.65 in 5.6 mi NNW 10.4 mph - N/A   Scattered Clouds
2:00 PM 80.6 °F 85.4 °F 73.4 °F 79% 29.65 in 6.2 mi North 8.1 mph - N/A   Partly Cloudy
3:00 PM 82.4 °F 89.5 °F 75.2 °F 79% 29.62 in 6.2 mi NNE 5.8 mph - N/A   Partly Cloudy
3:30 PM 84.2 °F 90.9 °F 73.4 °F 70% 29.62 in 6.2 mi North 5.8 mph - N/A   Partly Cloudy
4:00 PM 84.2 °F 90.9 °F 73.4 °F 70% 29.62 in 6.2 mi NW 4.6 mph - N/A   Partly Cloudy
5:30 PM 82.4 °F 88.2 °F 73.4 °F 74% 29.65 in 6.2 mi North 3.5 mph - N/A   Partly Cloudy
6:00 PM 82.4 °F 88.2 °F 73.4 °F 74% 29.65 in 6.2 mi NW 4.6 mph - N/A   Partly Cloudy
6:30 PM 82.4 °F 88.2 °F 73.4 °F 74% 29.68 in 6.2 mi WNW 5.8 mph - N/A   Partly Cloudy
7:30 PM 80.6 °F 85.4 °F 73.4 °F 79% 29.71 in 6.2 mi Calm Calm - N/A   Partly Cloudy
8:00 PM 80.6 °F 86.2 °F 75.2 °F 84% 29.71 in 6.2 mi NE 3.5 mph - N/A   Partly Cloudy
8:30 PM 80.6 °F 86.2 °F 75.2 °F 84% 29.71 in 6.2 mi NE 4.6 mph - N/A   Partly Cloudy
10:00 PM 80.6 °F 86.2 °F 75.2 °F 84% 29.74 in 6.2 mi Calm Calm - N/A   Partly Cloudy
10:30 PM 78.8 °F - 75.2 °F 89% 29.71 in 6.2 mi WSW 3.5 mph - N/A   Partly Cloudy
11:00 PM 80.6 °F 86.2 °F 75.2 °F 84% 29.71 in 6.2 mi North 4.6 mph - N/A   Partly Cloudy